StationID,Date,MaxTemp,MinTemp,Precipitation,Snowfall,SnowDepth
"USC00503680","1973-10-01",48.02,35.06,18.00,0.00,0.00
"USC00503680","1973-10-02",48.02,30.92,0.00,0.00,0.00
"USC00503680","1973-10-03",46.94,28.94,0.00,0.00,0.00
"USC00503680","1973-10-04",46.04,33.98,23.00,0.00,0.00
"USC00503680","1973-10-05",46.04,37.04,23.00,0.00,0.00
"USC00503680","1973-10-06",48.02,28.94,0.00,0.00,0.00
"USC00503680","1973-10-07",46.04,32.00,0.00,0.00,0.00
"USC00503680","1973-10-08",46.04,33.98,13.00,0.00,0.00
"USC00503680","1973-10-09",46.04,32.00,107.00,0.00,0.00
"USC00503680","1973-10-10",46.94,33.98,18.00,0.00,0.00
"USC00503680","1973-10-11",42.98,30.92,0.00,0.00,0.00
"USC00503680","1973-10-12",42.08,28.04,0.00,0.00,0.00
"USC00503680","1973-10-13",33.08,26.06,0.00,0.00,0.00
"USC00503680","1973-10-14",39.92,21.92,0.00,0.00,0.00
"USC00503680","1973-10-15",39.92,21.92,0.00,0.00,0.00
"USC00503680","1973-10-16",39.02,19.94,0.00,0.00,0.00
"USC00503680","1973-10-17",39.92,33.98,0.00,0.00,0.00
"USC00503680","1973-10-18",41.00,33.98,3.00,0.00,0.00
"USC00503680","1973-10-19",37.94,26.96,0.00,0.00,0.00
"USC00503680","1973-10-20",37.04,24.98,18.00,38.00,51.00
"USC00503680","1973-10-21",39.02,19.04,5.00,0.00,25.00
"USC00503680","1973-10-22",39.92,15.98,0.00,0.00,0.00
"USC00503680","1973-10-23",39.92,15.08,0.00,0.00,0.00
"USC00503680","1973-10-24",46.94,10.94,0.00,0.00,0.00
"USC00503680","1973-10-25",46.04,24.08,0.00,0.00,0.00
"USC00503680","1973-10-26",46.04,26.96,0.00,0.00,0.00
"USC00503680","1973-10-27",41.00,28.04,28.00,0.00,0.00
"USC00503680","1973-10-28",39.92,32.00,0.00,0.00,0.00
"USC00503680","1973-10-29",39.92,32.00,0.00,0.00,0.00
"USC00503680","1973-10-30",39.92,32.00,13.00,0.00,0.00
"USC00503680","1973-10-31",39.02,30.02,10.00,0.00,0.00
"USC00503680","1973-11-01",39.92,21.92,0.00,0.00,0.00
"USC00503680","1973-11-02",41.00,23.00,0.00,0.00,0.00
"USC00503680","1973-11-03",41.00,19.94,0.00,0.00,0.00
"USC00503680","1973-11-04",39.92,19.04,0.00,0.00,0.00
"USC00503680","1973-11-05",37.04,17.96,0.00,0.00,0.00
"USC00503680","1973-11-06",39.02,17.96,0.00,0.00,0.00
"USC00503680","1973-11-07",33.98,21.92,23.00,25.00,25.00
"USC00503680","1973-11-08",35.06,17.96,10.00,13.00,51.00
"USC00503680","1973-11-09",33.08,10.04,0.00,0.00,25.00
"USC00503680","1973-11-10",33.08,19.94,33.00,13.00,25.00
"USC00503680","1973-11-11",37.04,15.08,0.00,0.00,25.00
"USC00503680","1973-11-12",24.98,5.00,0.00,0.00,25.00
"USC00503680","1973-11-13",21.92,5.00,0.00,0.00,25.00
"USC00503680","1973-11-14",23.00,3.02,0.00,0.00,25.00
"USC00503680","1973-11-15",26.06,5.00,0.00,0.00,25.00
"USC00503680","1973-11-16",28.94,12.02,0.00,0.00,25.00
"USC00503680","1973-11-17",26.96,10.04,0.00,0.00,25.00
"USC00503680","1973-11-18",30.92,24.98,117.00,203.00,203.00
"USC00503680","1973-11-19",32.00,19.04,0.00,0.00,203.00
"USC00503680","1973-11-20",32.00,17.06,81.00,25.00,229.00
"USC00503680","1973-11-21",24.98,15.08,8.00,13.00,254.00
"USC00503680","1973-11-22",33.08,21.92,48.00,89.00,305.00
"USC00503680","1973-11-23",32.00,21.02,10.00,8.00,279.00
"USC00503680","1973-11-24",35.96,24.98,66.00,10.00,254.00
"USC00503680","1973-11-25",30.02,21.92,0.00,0.00,254.00
"USC00503680","1973-11-26",26.06,6.98,0.00,0.00,254.00
"USC00503680","1973-11-27",19.04,3.02,0.00,0.00,254.00
"USC00503680","1973-11-28",17.96,-0.04,0.00,0.00,254.00
"USC00503680","1973-11-29",14.00,-0.04,0.00,0.00,254.00
"USC00503680","1973-11-30",14.00,-0.94,0.00,0.00,254.00
"USC00503680","1973-12-01",19.04,6.08,0.00,0.00,254.00
"USC00503680","1973-12-02",17.06,5.00,0.00,0.00,254.00
"USC00503680","1973-12-03",15.08,-0.04,0.00,0.00,229.00
"USC00503680","1973-12-04",17.96,6.98,8.00,25.00,254.00
"USC00503680","1973-12-05",24.08,12.02,8.00,18.00,254.00
"USC00503680","1973-12-06",24.08,10.94,0.00,8.00,254.00
"USC00503680","1973-12-07",24.98,10.94,0.00,10.00,254.00
"USC00503680","1973-12-08",37.94,21.02,0.00,0.00,254.00
"USC00503680","1973-12-09",32.00,24.98,0.00,0.00,254.00
"USC00503680","1973-12-10",32.00,26.06,0.00,0.00,254.00
"USC00503680","1973-12-11",37.94,24.08,0.00,0.00,254.00
"USC00503680","1973-12-12",26.06,17.96,0.00,0.00,254.00
"USC00503680","1973-12-13",21.02,10.04,0.00,0.00,254.00
"USC00503680","1973-12-14",24.08,10.94,0.00,0.00,254.00
"USC00503680","1973-12-15",21.92,10.94,0.00,0.00,254.00
"USC00503680","1973-12-16",30.02,15.98,25.00,69.00,305.00
"USC00503680","1973-12-17",30.92,19.94,0.00,0.00,305.00
"USC00503680","1973-12-18",35.06,17.96,69.00,0.00,279.00
"USC00503680","1973-12-19",33.98,15.98,20.00,20.00,305.00
"USC00503680","1973-12-20",,,0.00,0.00,305.00
"USC00503680","1973-12-21",,,0.00,0.00,305.00
"USC00503680","1973-12-22",,,0.00,0.00,305.00
"USC00503680","1973-12-23",32.00,15.08,0.00,0.00,305.00
"USC00503680","1973-12-24",30.02,19.94,0.00,8.00,305.00
"USC00503680","1973-12-25",39.02,19.94,0.00,0.00,305.00
"USC00503680","1973-12-26",44.96,19.94,64.00,0.00,203.00
"USC00503680","1973-12-27",42.08,33.08,91.00,0.00,152.00
"USC00503680","1973-12-28",39.92,30.02,33.00,0.00,127.00
"USC00503680","1973-12-29",37.04,28.04,13.00,25.00,152.00
"USC00503680","1973-12-30",30.02,15.08,0.00,0.00,152.00
"USC00503680","1973-12-31",30.02,14.00,0.00,0.00,152.00
"USC00503680","1974-01-01",32.00,15.98,0.00,0.00,152.00
"USC00503680","1974-01-02",30.92,15.98,0.00,0.00,152.00
"USC00503680","1974-01-03",32.00,21.92,0.00,0.00,152.00
"USC00503680","1974-01-04",24.98,15.08,0.00,0.00,152.00
"USC00503680","1974-01-05",24.08,14.00,0.00,0.00,152.00
"USC00503680","1974-01-06",24.98,14.00,0.00,0.00,152.00
"USC00503680","1974-01-07",24.08,17.06,0.00,0.00,152.00
"USC00503680","1974-01-08",28.94,15.08,0.00,0.00,152.00
"USC00503680","1974-01-09",30.92,19.04,0.00,0.00,152.00
"USC00503680","1974-01-10",28.94,15.98,0.00,0.00,152.00
"USC00503680","1974-01-11",26.06,10.04,0.00,0.00,152.00
"USC00503680","1974-01-12",21.02,8.06,0.00,0.00,152.00
"USC00503680","1974-01-13",19.04,-0.04,0.00,0.00,152.00
"USC00503680","1974-01-14",15.08,-2.02,0.00,0.00,152.00
"USC00503680","1974-01-15",10.04,-2.92,0.00,0.00,152.00
"USC00503680","1974-01-16",10.94,-2.02,84.00,117.00,229.00
"USC00503680","1974-01-17",12.92,-0.94,10.00,18.00,279.00
"USC00503680","1974-01-18",17.96,3.92,13.00,20.00,279.00
"USC00503680","1974-01-19",15.08,5.00,8.00,30.00,279.00
"USC00503680","1974-01-20",10.04,-0.94,0.00,0.00,279.00
"USC00503680","1974-01-21",19.94,-7.06,0.00,0.00,279.00
"USC00503680","1974-01-22",21.92,10.94,15.00,30.00,305.00
"USC00503680","1974-01-23",28.04,10.04,0.00,0.00,305.00
"USC00503680","1974-01-24",30.92,14.00,0.00,0.00,305.00
"USC00503680","1974-01-25",24.98,5.00,0.00,0.00,279.00
"USC00503680","1974-01-26",17.96,-0.04,0.00,0.00,279.00
"USC00503680","1974-01-27",19.94,-4.00,0.00,0.00,279.00
"USC00503680","1974-01-28",19.04,1.94,0.00,0.00,279.00
"USC00503680","1974-01-29",15.08,1.04,0.00,0.00,279.00
"USC00503680","1974-01-30",17.96,-5.08,3.00,15.00,279.00
"USC00503680","1974-01-31",24.08,8.96,8.00,13.00,279.00
"USC00503680","1974-02-01",30.92,10.04,0.00,0.00,279.00
"USC00503680","1974-02-02",35.96,17.96,0.00,0.00,279.00
"USC00503680","1974-02-03",33.98,15.98,46.00,71.00,356.00
"USC00503680","1974-02-04",33.98,6.98,0.00,0.00,330.00
"USC00503680","1974-02-05",39.02,24.98,15.00,0.00,330.00
"USC00503680","1974-02-06",35.96,24.08,5.00,0.00,305.00
"USC00503680","1974-02-07",41.00,24.08,15.00,25.00,279.00
"USC00503680","1974-02-08",41.00,24.08,20.00,25.00,305.00
"USC00503680","1974-02-09",39.02,33.08,0.00,0.00,305.00
"USC00503680","1974-02-10",35.06,26.06,33.00,51.00,356.00
"USC00503680","1974-02-11",30.92,21.92,0.00,0.00,356.00
"USC00503680","1974-02-12",23.00,1.04,0.00,0.00,330.00
"USC00503680","1974-02-13",14.00,6.08,51.00,76.00,406.00
"USC00503680","1974-02-14",14.00,8.06,30.00,94.00,483.00
"USC00503680","1974-02-15",10.94,1.04,33.00,127.00,533.00
"USC00503680","1974-02-16",12.02,3.02,23.00,38.00,533.00
"USC00503680","1974-02-17",17.96,3.02,0.00,13.00,559.00
"USC00503680","1974-02-18",15.08,10.04,61.00,221.00,737.00
"USC00503680","1974-02-19",12.92,-7.96,10.00,18.00,762.00
"USC00503680","1974-02-20",17.96,1.04,43.00,25.00,762.00
"USC00503680","1974-02-21",19.94,3.02,10.00,30.00,610.00
"USC00503680","1974-02-22",19.94,8.96,25.00,64.00,660.00
"USC00503680","1974-02-23",32.00,10.04,0.00,0.00,584.00
"USC00503680","1974-02-24",35.96,8.96,0.00,0.00,559.00
"USC00503680","1974-02-25",32.00,-0.04,0.00,0.00,559.00
"USC00503680","1974-02-26",41.00,12.02,0.00,0.00,559.00
"USC00503680","1974-02-27",28.04,19.04,13.00,25.00,584.00
"USC00503680","1974-02-28",26.06,14.00,0.00,0.00,584.00
"USC00503680","1974-03-01",26.96,-0.04,0.00,0.00,533.00
"USC00503680","1974-03-02",24.98,15.08,76.00,61.00,584.00
"USC00503680","1974-03-03",24.98,14.00,0.00,0.00,559.00
"USC00503680","1974-03-04",28.04,-0.04,0.00,0.00,559.00
"USC00503680","1974-03-05",30.02,6.08,5.00,25.00,584.00
"USC00503680","1974-03-06",33.98,10.04,0.00,0.00,559.00
"USC00503680","1974-03-07",24.98,-4.00,0.00,0.00,559.00
"USC00503680","1974-03-08",21.92,-5.98,0.00,0.00,559.00
"USC00503680","1974-03-09",24.08,-2.92,0.00,0.00,559.00
"USC00503680","1974-03-10",24.98,-2.02,0.00,0.00,559.00
"USC00503680","1974-03-11",28.04,-5.08,0.00,0.00,559.00
"USC00503680","1974-03-12",33.08,1.94,0.00,0.00,559.00
"USC00503680","1974-03-13",30.02,1.04,0.00,0.00,559.00
"USC00503680","1974-03-14",39.02,14.00,0.00,0.00,559.00
"USC00503680","1974-03-15",37.94,15.08,0.00,0.00,559.00
"USC00503680","1974-03-16",39.92,17.96,0.00,0.00,533.00
"USC00503680","1974-03-17",39.02,24.08,15.00,25.00,533.00
"USC00503680","1974-03-18",39.92,21.02,0.00,0.00,533.00
"USC00503680","1974-03-19",44.96,32.00,0.00,0.00,508.00
"USC00503680","1974-03-20",44.96,30.92,0.00,0.00,483.00
"USC00503680","1974-03-21",51.08,33.98,0.00,0.00,432.00
"USC00503680","1974-03-22",46.04,28.94,0.00,0.00,381.00
"USC00503680","1974-03-23",48.02,28.04,0.00,0.00,356.00
"USC00503680","1974-03-24",48.02,21.02,0.00,0.00,356.00
"USC00503680","1974-03-25",48.92,33.98,0.00,0.00,356.00
"USC00503680","1974-03-26",53.96,28.04,0.00,0.00,330.00
"USC00503680","1974-03-27",51.08,26.96,0.00,0.00,305.00
"USC00503680","1974-03-28",48.02,33.98,3.00,0.00,279.00
"USC00503680","1974-03-29",41.00,23.00,0.00,0.00,229.00
"USC00503680","1974-03-30",44.96,28.04,0.00,0.00,203.00
"USC00503680","1974-03-31",39.02,28.94,0.00,0.00,203.00
"USC00503680","1974-04-01",39.92,30.02,0.00,0.00,203.00
"USC00503680","1974-04-02",41.00,26.96,0.00,0.00,203.00
"USC00503680","1974-04-03",41.00,30.02,0.00,0.00,203.00
"USC00503680","1974-04-04",44.96,26.06,0.00,0.00,178.00
"USC00503680","1974-04-05",42.98,28.94,0.00,0.00,152.00
"USC00503680","1974-04-06",41.00,28.04,0.00,0.00,102.00
"USC00503680","1974-04-07",42.08,28.04,0.00,0.00,25.00
"USC00503680","1974-04-08",42.08,26.06,5.00,0.00,0.00
"USC00503680","1974-04-09",39.02,30.92,46.00,51.00,51.00
"USC00503680","1974-04-10",35.96,26.96,5.00,0.00,0.00
"USC00503680","1974-04-11",35.96,30.02,33.00,0.00,0.00
"USC00503680","1974-04-12",39.92,21.02,0.00,0.00,0.00
"USC00503680","1974-04-13",42.08,19.94,15.00,0.00,0.00
"USC00503680","1974-04-14",44.06,35.96,0.00,0.00,0.00
"USC00503680","1974-04-15",46.04,30.92,0.00,0.00,0.00
"USC00503680","1974-04-16",48.92,30.92,0.00,0.00,0.00
"USC00503680","1974-04-17",42.08,33.08,0.00,0.00,0.00
"USC00503680","1974-04-18",44.06,30.92,0.00,0.00,0.00
"USC00503680","1974-04-19",46.04,28.94,0.00,0.00,0.00
"USC00503680","1974-04-20",51.08,33.98,0.00,0.00,0.00
"USC00503680","1974-04-21",48.92,28.04,0.00,0.00,0.00
"USC00503680","1974-04-22",42.98,30.02,15.00,0.00,0.00
"USC00503680","1974-04-23",46.04,37.94,170.00,0.00,0.00
"USC00503680","1974-04-24",42.08,30.92,20.00,0.00,0.00
"USC00503680","1974-04-25",44.96,23.00,0.00,0.00,0.00
"USC00503680","1974-04-26",48.92,26.96,0.00,0.00,0.00
"USC00503680","1974-04-27",50.00,33.08,0.00,0.00,0.00
"USC00503680","1974-04-28",48.92,30.92,0.00,0.00,0.00
"USC00503680","1974-04-29",55.04,28.04,0.00,0.00,0.00
"USC00503680","1974-04-30",57.92,32.00,0.00,0.00,0.00
"USC00503680","1974-05-01",55.04,33.08,0.00,0.00,0.00
"USC00503680","1974-05-02",51.08,35.06,0.00,0.00,0.00
"USC00503680","1974-05-03",51.98,26.06,0.00,0.00,0.00
"USC00503680","1974-05-04",50.00,39.92,0.00,0.00,0.00
"USC00503680","1974-05-05",48.92,28.04,0.00,0.00,0.00
"USC00503680","1974-05-06",51.98,30.02,0.00,0.00,0.00
"USC00503680","1974-05-07",51.08,33.98,0.00,0.00,0.00
"USC00503680","1974-05-08",,,0.00,0.00,0.00
"USC00503680","1974-05-09",51.08,33.98,0.00,0.00,0.00
"USC00503680","1974-05-10",51.08,32.00,0.00,0.00,0.00
"USC00503680","1974-05-11",50.00,32.00,0.00,0.00,0.00
"USC00503680","1974-05-12",51.98,28.04,0.00,0.00,0.00
"USC00503680","1974-05-13",51.08,30.02,0.00,0.00,0.00
"USC00503680","1974-05-14",53.06,26.06,0.00,0.00,0.00
"USC00503680","1974-05-15",50.00,28.94,0.00,0.00,0.00
"USC00503680","1974-05-16",48.02,33.08,0.00,0.00,0.00
"USC00503680","1974-05-17",46.94,28.94,0.00,0.00,0.00
"USC00503680","1974-05-18",53.06,28.04,0.00,0.00,0.00
"USC00503680","1974-05-19",57.02,30.92,0.00,0.00,0.00
"USC00503680","1974-05-20",53.96,33.08,0.00,0.00,0.00
"USC00503680","1974-05-21",55.04,33.98,0.00,0.00,0.00
"USC00503680","1974-05-22",59.00,32.00,0.00,0.00,0.00
"USC00503680","1974-05-23",60.08,33.98,0.00,0.00,0.00
"USC00503680","1974-05-24",62.06,37.94,0.00,0.00,0.00
"USC00503680","1974-05-25",64.94,37.94,0.00,0.00,0.00
"USC00503680","1974-05-26",68.00,35.96,0.00,0.00,0.00
"USC00503680","1974-05-27",60.08,37.04,0.00,0.00,0.00
"USC00503680","1974-05-28",55.94,33.98,0.00,0.00,0.00
"USC00503680","1974-05-29",55.94,33.98,0.00,0.00,0.00
"USC00503680","1974-05-30",53.96,35.96,0.00,0.00,0.00
"USC00503680","1974-05-31",57.92,33.08,0.00,0.00,0.00
"USC00503680","1974-06-01",55.94,35.96,0.00,0.00,0.00
"USC00503680","1974-06-02",62.06,33.98,0.00,0.00,0.00
"USC00503680","1974-06-03",62.96,33.98,0.00,0.00,0.00
"USC00503680","1974-06-04",60.98,37.04,0.00,0.00,0.00
"USC00503680","1974-06-05",57.92,39.92,0.00,0.00,0.00
"USC00503680","1974-06-06",60.98,33.08,0.00,0.00,0.00
"USC00503680","1974-06-07",55.94,37.94,10.00,0.00,0.00
"USC00503680","1974-06-08",62.96,35.06,0.00,0.00,0.00
"USC00503680","1974-06-09",62.96,37.04,0.00,0.00,0.00
"USC00503680","1974-06-10",62.96,39.02,0.00,0.00,0.00
"USC00503680","1974-06-11",68.00,39.02,0.00,0.00,0.00
"USC00503680","1974-06-12",69.98,37.04,0.00,0.00,0.00
"USC00503680","1974-06-13",66.02,39.92,0.00,0.00,0.00
"USC00503680","1974-06-14",55.94,37.94,0.00,0.00,0.00
"USC00503680","1974-06-15",51.98,42.98,0.00,0.00,0.00
"USC00503680","1974-06-16",55.04,39.02,20.00,0.00,0.00
"USC00503680","1974-06-17",55.04,39.92,8.00,0.00,0.00
"USC00503680","1974-06-18",,,0.00,0.00,0.00
"USC00503680","1974-06-19",57.02,35.06,89.00,0.00,0.00
"USC00503680","1974-06-20",59.00,33.98,0.00,0.00,0.00
"USC00503680","1974-06-21",60.08,37.04,0.00,0.00,0.00
"USC00503680","1974-06-22",62.06,37.04,0.00,0.00,0.00
"USC00503680","1974-06-23",69.08,42.08,0.00,0.00,0.00
"USC00503680","1974-06-24",60.98,46.04,0.00,0.00,0.00
"USC00503680","1974-06-25",62.96,48.02,0.00,0.00,0.00
"USC00503680","1974-06-26",60.98,44.06,0.00,0.00,0.00
"USC00503680","1974-06-27",66.92,39.92,0.00,0.00,0.00
"USC00503680","1974-06-28",69.08,44.96,0.00,0.00,0.00
"USC00503680","1974-06-29",66.02,41.00,0.00,0.00,0.00
"USC00503680","1974-06-30",69.98,41.00,0.00,0.00,0.00
"USC00503680","1974-07-01",64.94,48.02,0.00,0.00,0.00
"USC00503680","1974-07-02",64.04,42.08,0.00,0.00,0.00
"USC00503680","1974-07-03",68.00,42.08,0.00,0.00,0.00
"USC00503680","1974-07-04",69.98,41.00,0.00,0.00,0.00
"USC00503680","1974-07-05",64.94,44.96,0.00,0.00,0.00
"USC00503680","1974-07-06",64.04,44.06,10.00,0.00,0.00
"USC00503680","1974-07-07",64.94,44.06,0.00,0.00,0.00
"USC00503680","1974-07-08",64.94,42.98,0.00,0.00,0.00
"USC00503680","1974-07-09",62.96,44.96,25.00,0.00,0.00
"USC00503680","1974-07-10",62.06,46.04,109.00,0.00,0.00
"USC00503680","1974-07-11",59.00,42.98,13.00,0.00,0.00
"USC00503680","1974-07-12",,,0.00,0.00,0.00
"USC00503680","1974-07-13",62.96,44.96,0.00,0.00,0.00
"USC00503680","1974-07-14",62.06,41.00,0.00,0.00,0.00
"USC00503680","1974-07-15",64.94,41.00,0.00,0.00,0.00
"USC00503680","1974-07-16",64.94,42.08,0.00,0.00,0.00
"USC00503680","1974-07-17",64.04,39.92,0.00,0.00,0.00
"USC00503680","1974-07-18",69.08,42.08,0.00,0.00,0.00
"USC00503680","1974-07-19",,,,0.00,0.00
"USC00503680","1974-07-20",,,,0.00,0.00
"USC00503680","1974-07-21",,,,0.00,0.00
"USC00503680","1974-07-22",64.04,42.08,,0.00,0.00
"USC00503680","1974-07-23",60.98,41.00,0.00,0.00,0.00
"USC00503680","1974-07-24",62.96,39.92,0.00,0.00,0.00
"USC00503680","1974-07-25",64.94,37.94,15.00,0.00,0.00
"USC00503680","1974-07-26",,,0.00,0.00,0.00
"USC00503680","1974-07-27",,,0.00,0.00,0.00
"USC00503680","1974-07-28",,,0.00,0.00,0.00
"USC00503680","1974-07-29",69.08,41.00,0.00,0.00,0.00
"USC00503680","1974-07-30",64.04,51.08,0.00,0.00,0.00
"USC00503680","1974-07-31",60.98,41.00,0.00,0.00,0.00
"USC00503680","1974-08-01",64.04,39.92,0.00,0.00,0.00
"USC00503680","1974-08-02",62.96,42.08,0.00,0.00,0.00
"USC00503680","1974-08-03",64.04,41.00,0.00,0.00,0.00
"USC00503680","1974-08-04",64.94,39.92,0.00,0.00,0.00
"USC00503680","1974-08-05",69.98,44.96,0.00,0.00,0.00
"USC00503680","1974-08-06",66.02,50.00,0.00,0.00,0.00
"USC00503680","1974-08-07",60.98,50.00,69.00,0.00,0.00
"USC00503680","1974-08-08",59.00,48.92,28.00,0.00,0.00
"USC00503680","1974-08-09",57.02,44.96,33.00,0.00,0.00
"USC00503680","1974-08-10",64.04,48.92,8.00,0.00,0.00
"USC00503680","1974-08-11",62.96,48.92,0.00,0.00,0.00
"USC00503680","1974-08-12",64.94,48.02,0.00,0.00,0.00
"USC00503680","1974-08-13",68.00,44.06,0.00,0.00,0.00
"USC00503680","1974-08-14",69.98,44.96,0.00,0.00,0.00
"USC00503680","1974-08-15",66.92,44.96,0.00,0.00,0.00
"USC00503680","1974-08-16",66.92,48.02,0.00,0.00,0.00
"USC00503680","1974-08-17",66.02,42.98,0.00,0.00,0.00
"USC00503680","1974-08-18",68.00,44.06,0.00,0.00,0.00
"USC00503680","1974-08-19",73.94,44.96,0.00,0.00,0.00
"USC00503680","1974-08-20",69.98,44.06,0.00,0.00,0.00
"USC00503680","1974-08-21",68.00,46.04,0.00,0.00,0.00
"USC00503680","1974-08-22",66.92,41.00,0.00,0.00,0.00
"USC00503680","1974-08-23",64.94,35.06,0.00,0.00,0.00
"USC00503680","1974-08-24",55.94,42.98,132.00,0.00,0.00
"USC00503680","1974-08-25",53.96,44.06,5.00,0.00,0.00
"USC00503680","1974-08-26",60.08,42.08,13.00,0.00,0.00
"USC00503680","1974-08-27",64.94,50.00,112.00,0.00,0.00
"USC00503680","1974-08-28",66.02,46.94,0.00,0.00,0.00
"USC00503680","1974-08-29",62.96,46.04,23.00,0.00,0.00
"USC00503680","1974-08-30",69.08,53.96,10.00,0.00,0.00
"USC00503680","1974-08-31",66.02,51.08,3.00,0.00,0.00
"USC00503680","1974-09-01",62.06,42.08,0.00,0.00,0.00
"USC00503680","1974-09-02",62.96,41.00,0.00,0.00,0.00
"USC00503680","1974-09-03",60.08,44.96,0.00,0.00,0.00
"USC00503680","1974-09-04",64.94,50.00,0.00,0.00,0.00
"USC00503680","1974-09-05",64.04,41.00,0.00,0.00,0.00
"USC00503680","1974-09-06",64.04,37.04,0.00,0.00,0.00
"USC00503680","1974-09-07",59.00,42.98,0.00,0.00,0.00
"USC00503680","1974-09-08",60.98,39.92,0.00,0.00,0.00
"USC00503680","1974-09-09",64.94,39.02,0.00,0.00,0.00
"USC00503680","1974-09-10",62.96,44.06,0.00,0.00,0.00
"USC00503680","1974-09-11",62.96,42.08,46.00,0.00,0.00
"USC00503680","1974-09-12",57.92,44.06,61.00,0.00,0.00
"USC00503680","1974-09-13",59.00,42.98,58.00,0.00,0.00
"USC00503680","1974-09-14",57.02,44.06,127.00,0.00,0.00
"USC00503680","1974-09-15",57.92,44.96,150.00,0.00,0.00
"USC00503680","1974-09-16",57.02,42.98,142.00,0.00,0.00
"USC00503680","1974-09-17",57.02,39.02,51.00,0.00,0.00
"USC00503680","1974-09-18",55.94,41.00,28.00,0.00,0.00
"USC00503680","1974-09-19",60.08,39.92,23.00,0.00,0.00
"USC00503680","1974-09-20",62.06,50.00,30.00,0.00,0.00
"USC00503680","1974-09-21",60.08,39.92,0.00,0.00,0.00
"USC00503680","1974-09-22",55.94,39.92,38.00,0.00,0.00
"USC00503680","1974-09-23",53.96,37.94,23.00,0.00,0.00
"USC00503680","1974-09-24",51.98,48.92,114.00,0.00,0.00
"USC00503680","1974-09-25",53.96,48.92,0.00,0.00,0.00
"USC00503680","1974-09-26",55.94,37.94,0.00,0.00,0.00
"USC00503680","1974-09-27",55.04,35.96,0.00,0.00,0.00
"USC00503680","1974-09-28",53.06,37.04,0.00,0.00,0.00
"USC00503680","1974-09-29",55.94,30.02,0.00,0.00,0.00
"USC00503680","1974-09-30",51.98,26.06,0.00,0.00,0.00
"USC00503680","1975-01-01",,,0.00,0.00,0.00
"USC00503680","1975-01-02",-9.94,-14.98,,,584.00
"USC00503680","1975-01-03",-0.94,-14.08,0.00,0.00,584.00
"USC00503680","1975-01-04",-9.04,-18.94,0.00,0.00,584.00
"USC00503680","1975-01-05",-5.98,-20.02,0.00,0.00,584.00
"USC00503680","1975-01-06",3.92,-14.98,0.00,0.00,584.00
"USC00503680","1975-01-07",-0.04,-11.92,0.00,0.00,584.00
"USC00503680","1975-01-08",-0.04,-9.94,0.00,0.00,584.00
"USC00503680","1975-01-09",1.94,-9.04,0.00,0.00,584.00
"USC00503680","1975-01-10",19.04,-0.04,0.00,0.00,584.00
"USC00503680","1975-01-11",28.04,19.04,0.00,0.00,584.00
"USC00503680","1975-01-12",24.08,8.06,0.00,0.00,584.00
"USC00503680","1975-01-13",15.08,5.00,20.00,89.00,660.00
"USC00503680","1975-01-14",15.08,1.94,0.00,0.00,610.00
"USC00503680","1975-01-15",33.98,15.08,0.00,0.00,686.00
"USC00503680","1975-01-16",37.94,26.96,0.00,0.00,610.00
"USC00503680","1975-01-17",39.92,33.08,0.00,0.00,584.00
"USC00503680","1975-01-18",37.94,33.98,119.00,0.00,559.00
"USC00503680","1975-01-19",,,0.00,0.00,
"USC00503680","1975-01-20",,,0.00,0.00,
"USC00503680","1975-01-21",,,0.00,0.00,
"USC00503680","1975-01-22",,,0.00,0.00,
"USC00503680","1975-01-23",42.98,23.00,0.00,0.00,432.00
"USC00503680","1975-01-24",,,0.00,0.00,432.00
"USC00503680","1975-01-25",28.04,19.04,0.00,0.00,432.00
"USC00503680","1975-01-26",41.00,28.04,0.00,0.00,432.00
"USC00503680","1975-01-27",,,0.00,0.00,
"USC00503680","1975-01-28",39.02,23.00,0.00,0.00,406.00
"USC00503680","1975-01-29",37.04,19.94,0.00,0.00,406.00
"USC00503680","1975-01-30",28.04,10.94,0.00,0.00,406.00
"USC00503680","1975-01-31",24.98,3.02,0.00,0.00,406.00
"USC00503680","1975-02-01",28.04,1.94,0.00,0.00,406.00
"USC00503680","1975-02-02",,,0.00,0.00,406.00
"USC00503680","1975-02-03",28.04,1.94,0.00,0.00,406.00
"USC00503680","1975-02-04",32.00,8.96,0.00,0.00,406.00
"USC00503680","1975-02-05",30.02,5.00,0.00,0.00,406.00
"USC00503680","1975-02-06",33.08,6.08,0.00,0.00,406.00
"USC00503680","1975-02-07",37.04,10.04,0.00,0.00,406.00
"USC00503680","1975-02-08",,,0.00,0.00,406.00
"USC00503680","1975-02-09",30.92,10.04,0.00,0.00,406.00
"USC00503680","1975-02-10",17.96,1.04,0.00,0.00,406.00
"USC00503680","1975-02-11",12.02,-5.08,0.00,0.00,406.00
"USC00503680","1975-02-12",5.00,-11.92,0.00,3.00,406.00
"USC00503680","1975-02-13",14.00,-7.96,18.00,25.00,432.00
"USC00503680","1975-02-14",15.08,-2.92,8.00,76.00,483.00
"USC00503680","1975-02-15",12.02,1.94,46.00,64.00,559.00
"USC00503680","1975-02-16",,,0.00,0.00,559.00
"USC00503680","1975-02-17",32.00,-2.02,0.00,0.00,559.00
"USC00503680","1975-02-18",35.96,10.04,38.00,76.00,559.00
"USC00503680","1975-02-19",,,0.00,0.00,533.00
"USC00503680","1975-02-20",26.96,-2.92,0.00,0.00,533.00
"USC00503680","1975-02-21",37.94,21.92,135.00,94.00,635.00
"USC00503680","1975-02-22",35.06,24.98,36.00,48.00,635.00
"USC00503680","1975-02-23",30.02,14.00,5.00,46.00,660.00
"USC00503680","1975-02-24",33.98,1.94,0.00,0.00,660.00
"USC00503680","1975-02-25",37.04,26.96,429.00,51.00,686.00
"USC00503680","1975-02-26",39.02,32.00,43.00,0.00,686.00
"USC00503680","1975-02-27",39.02,26.06,13.00,20.00,711.00
"USC00503680","1975-02-28",41.00,19.94,0.00,0.00,686.00
"USC00503680","1975-03-01",33.98,8.06,0.00,0.00,686.00
"USC00503680","1975-03-02",33.98,17.06,0.00,0.00,686.00
"USC00503680","1975-03-03",35.96,24.08,0.00,0.00,686.00
"USC00503680","1975-03-04",37.94,28.04,0.00,0.00,686.00
"USC00503680","1975-03-05",37.04,21.92,0.00,0.00,686.00
"USC00503680","1975-03-06",35.06,10.04,0.00,0.00,686.00